ヒル彗星

P/2019 P1 ( Hill )

English version
Home page
Updated on August 10, 2019

---------------------------------------------------------------------

・ プロフィール

検出日 2019年8月2日
検出光度 20.4等
検出者 K. Sarneczky (Piszkesteto Station of Konkoly Observatory)

・ 軌道要素

Epoch 2019 Oct. 4.0 TT = JDT 2458760.5                                          
T 2019 Sept. 14.81439 TT                                Williams                
q   2.5675990            (2000.0)            P               Q                  
n   0.11105358     Peri.   44.33673     +0.74839665     -0.66308745             
a   4.2866135      Node   357.07974     +0.49905229     +0.57762458             
e   0.4010192      Incl.   16.82617     +0.43686298     +0.47609335             
P   8.88                                                                        
From 267 observations 2010 Oct. 1-2019 Aug. 7, mean residual 0".6.              

・ 光度変化

        m1 = 12.7 + 5 logΔ + 10.0 log r

---------------------------------------------------------------------

軌道要素はM.P.E.C. 2019-P61に掲載されたものです。
光度グラフはComet for Windowsで作成したものです。

---------------------------------------------------------------------

Copyright(C) Seiichi Yoshida (comet@aerith.net). All rights reserved.